QPF
0.00 0.00 0.00 0.00 0.00 0.00 0.00 0.00 0.00 0.00 0.00 0.00 0.00 0.00 0.00 0.00 0.00 0.00 0.00 0.00 0.00 0.00 0.00 0.00 0.00 0.00 0.01 0.01 0.00 0.00 0.00 0.01 0.01 0.01 0.00 0.00 0.00 0.00 0.00 0.00 0.00 0.00 0.00 0.00 0.00 0.00 0.00 0.00 0.00
0.00 0.00 0.00 0.00 0.00 0.00 0.00 0.00 0.00 0.00 0.00 0.00 0.00 0.00 0.00 0.00 0.00 0.00 0.00 0.00 0.00 0.00 0.00 0.00 0.00 0.01 0.01 0.00 0.00 0.00 0.00 0.00 0.01 0.01 0.01 0.00 0.00 0.00 0.00 0.00 0.00 0.00 0.00 0.00 0.00 0.00 0.00 0.00 0.00
0.00 0.00 0.00 0.00 0.00 0.00 0.00 0.00 0.00 0.00 0.00 0.00 0.00 0.00 0.00 0.00 0.00 0.00 0.00 0.00 0.00 0.00 0.00 0.00 0.00 0.00 0.00 0.00 0.00 0.00 0.00 0.00 0.01 0.01 0.01 0.00 0.00 0.00 0.00 0.00 0.00 0.00 0.00 0.00 0.00 0.00 0.00 0.00 0.00
0.00 0.00 0.00 0.00 0.00 0.00 0.00 0.00 0.00 0.00 0.00 0.00 0.00 0.00 0.00 0.00 0.00 0.00 0.00 0.00 0.00 0.00 0.00 0.00 0.00 0.00 0.00 0.00 0.00 0.00 0.00 0.00 0.01 0.00 0.00 0.00 0.00 0.00 0.00 0.00 0.00 0.00 0.00 0.00 0.00 0.00 0.00 0.00 0.00
0.00 0.00 0.00 0.00 0.00 0.00 0.00 0.00 0.00 0.00 0.00 0.00 0.00 0.00 0.00 0.00 0.00 0.00 0.00 0.00 0.00 0.00 0.00 0.00 0.00 0.00 0.00 0.00 0.00 0.00 0.00 0.00 0.00 0.00 0.00 0.00 0.00 0.00 0.00 0.00 0.00 0.00 0.00 0.00 0.00 0.00 0.00 0.00 0.00
0.00 0.00 0.00 0.00 0.00 0.00 0.00 0.00 0.00 0.00 0.00 0.00 0.00 0.00 0.00 0.00 0.00 0.00 0.00 0.00 0.00 0.00 0.00 0.00 0.01 0.01 0.01 0.01 0.00 0.00 0.00 0.00 0.00 0.00 0.00 0.00 0.00 0.00 0.00 0.00 0.00 0.00 0.00 0.00 0.00 0.00 0.00 0.00 0.00
0.00 0.00 0.00 0.00 0.00 0.00 0.00 0.00 0.00 0.00 0.00 0.00 0.00 0.00 0.00 0.00 0.00 0.00 0.00 0.00 0.00 0.00 0.00 0.00 0.00 0.00 0.01 0.01 0.00 0.00 0.00 0.00 0.00 0.00 0.00 0.00 0.00 0.00 0.00 0.00 0.00 0.00 0.00 0.00 0.00 0.00 0.00 0.00 0.00
0.00 0.00 0.00 0.00 0.00 0.00 0.00 0.00 0.00 0.00 0.00 0.00 0.00 0.00 0.00 0.00 0.00 0.00 0.00 0.00 0.00 0.00 0.00 0.00 0.00 0.00 0.00 0.00 0.00 0.00 0.00 0.00 0.00 0.00 0.00 0.00 0.00 0.00 0.00 0.00 0.00 0.00 0.00 0.00 0.00 0.00 0.00 0.00 0.00
0.00 0.00 0.00 0.00 0.00 0.00 0.00 0.00 0.00 0.00 0.00 0.00 0.00 0.00 0.00 0.00 0.00 0.00 0.00 0.00 0.00 0.00 0.00 0.00 0.00 0.00 0.00 0.00 0.00 0.00 0.00 0.00 0.00 0.00 0.00 0.00 0.00 0.00 0.00 0.00 0.00 0.00 0.00 0.00 0.00 0.00 0.00 0.00 0.00
0.00 0.00 0.00 0.00 0.00 0.00 0.00 0.00 0.00 0.00 0.00 0.00 0.00 0.00 0.00 0.00 0.00 0.00 0.00 0.00 0.00 0.00 0.00 0.00 0.00 0.00 0.00 0.00 0.00 0.00 0.00 0.00 0.00 0.00 0.00 0.00 0.00 0.00 0.00 0.00 0.00 0.00 0.00 0.00 0.00 0.00 0.00 0.00 0.00
0.00 0.00 0.00 0.00 0.00 0.00 0.00 0.00 0.00 0.00 0.00 0.00 0.00 0.00 0.00 0.00 0.00 0.00 0.00 0.00 0.00 0.00 0.00 0.00 0.00 0.00 0.00 0.00 0.00 0.00 0.00 0.00 0.00 0.00 0.00 0.00 0.00 0.00 0.00 0.00 0.00 0.00 0.00 0.00 0.00 0.00 0.00 0.00 0.00
0.00 0.00 0.00 0.00 0.00 0.00 0.00 0.00 0.00 0.00 0.00 0.00 0.00 0.00 0.00 0.00 0.00 0.00 0.00 0.00 0.00 0.00 0.00 0.00 0.00 0.00 0.00 0.00 0.00 0.00 0.00 0.00 0.00 0.00 0.00 0.00 0.00 0.00 0.00 0.00 0.00 0.00 0.00 0.00 0.00 0.00 0.00 0.00 0.00
0.00 0.00 0.00 0.00 0.00 0.00 0.00 0.00 0.00 0.00 0.00 0.00 0.00 0.00 0.00 0.00 0.00 0.00 0.00 0.00 0.00 0.00 0.00 0.00 0.00 0.00 0.00 0.00 0.00 0.00 0.00 0.00 0.00 0.00 0.00 0.00 0.00 0.00 0.00 0.00 0.00 0.00 0.00 0.00 0.00 0.00 0.00 0.00 0.00
0.00 0.00 0.00 0.00 0.00 0.00 0.00 0.00 0.00 0.00 0.00 0.00 0.00 0.00 0.00 0.00 0.00 0.00 0.00 0.00 0.00 0.00 0.00 0.00 0.00 0.00 0.00 0.00 0.00 0.00 0.00 0.00 0.00 0.00 0.00 0.00 0.00 0.00 0.00 0.00 0.00 0.00 0.00 0.00 0.00 0.00 0.00 0.00 0.00
0.00 0.00 0.00 0.00 0.00 0.00 0.00 0.00 0.00 0.00 0.00 0.00 0.00 0.00 0.00 0.00 0.00 0.00 0.00 0.00 0.00 0.00 0.00 0.00 0.00 0.00 0.00 0.00 0.00 0.00 0.00 0.00 0.00 0.00 0.00 0.00 0.00 0.00 0.00 0.00 0.00 0.00 0.00 0.00 0.00 0.00 0.00 0.00 0.00
0.00 0.00 0.00 0.00 0.00 0.00 0.00 0.00 0.00 0.00 0.00 0.00 0.00 0.00 0.00 0.00 0.00 0.00 0.00 0.00 0.00 0.00 0.00 0.00 0.00 0.00 0.00 0.00 0.00 0.00 0.00 0.00 0.00 0.00 0.00 0.00 0.00 0.00 0.00 0.00 0.00 0.00 0.00 0.00 0.00 0.00 0.00 0.00 0.00
0.00 0.00 0.00 0.00 0.00 0.00 0.00 0.00 0.00 0.00 0.00 0.00 0.00 0.00 0.00 0.00 0.00 0.00 0.00 0.00 0.00 0.00 0.00 0.00 0.00 0.00 0.00 0.00 0.00 0.00 0.00 0.00 0.00 0.00 0.00 0.00 0.00 0.00 0.00 0.00 0.00 0.00 0.00 0.00 0.00 0.00 0.00 0.00 0.00
0.00 0.00 0.00 0.00 0.00 0.00 0.00 0.00 0.00 0.00 0.00 0.00 0.00 0.00 0.00 0.00 0.00 0.00 0.00 0.00 0.00 0.00 0.00 0.00 0.00 0.00 0.00 0.00 0.00 0.00 0.00 0.00 0.00 0.00 0.00 0.00 0.00 0.00 0.00 0.00 0.00 0.00 0.00 0.00 0.00 0.00 0.00 0.00 0.00
0.00 0.00 0.00 0.00 0.00 0.00 0.00 0.00 0.00 0.00 0.00 0.00 0.00 0.00 0.00 0.00 0.00 0.00 0.00 0.00 0.00 0.00 0.00 0.00 0.00 0.00 0.00 0.00 0.00 0.00 0.00 0.00 0.00 0.00 0.00 0.00 0.00 0.00 0.00 0.00 0.00 0.00 0.00 0.00 0.00 0.00 0.00 0.00 0.00
0.00 0.00 0.00 0.00 0.00 0.00 0.00 0.00 0.00 0.00 0.00 0.00 0.00 0.00 0.00 0.00 0.00 0.00 0.00 0.00 0.00 0.00 0.00 0.00 0.00 0.00 0.00 0.00 0.00 0.00 0.00 0.00 0.00 0.00 0.00 0.00 0.00 0.00 0.00 0.00 0.00 0.00 0.00 0.00 0.00 0.00 0.00 0.00 0.00
0.00 0.00 0.00 0.00 0.00 0.00 0.00 0.00 0.00 0.00 0.00 0.00 0.00 0.00 0.00 0.00 0.00 0.00 0.00 0.00 0.00 0.00 0.00 0.00 0.00 0.00 0.00 0.00 0.00 0.00 0.00 0.00 0.00 0.00 0.00 0.00 0.00 0.00 0.00 0.00 0.00 0.00 0.00 0.00 0.00 0.00 0.00 0.00 0.00
0.00 0.00 0.00 0.00 0.00 0.00 0.00 0.00 0.00 0.00 0.00 0.00 0.00 0.00 0.00 0.00 0.00 0.00 0.00 0.00 0.00 0.00 0.00 0.00 0.00 0.00 0.00 0.00 0.00 0.00 0.00 0.00 0.00 0.00 0.00 0.00 0.00 0.00 0.00 0.00 0.00 0.00 0.00 0.00 0.00 0.00 0.00 0.00 0.00
0.00 0.00 0.00 0.00 0.00 0.00 0.00 0.00 0.00 0.00 0.00 0.00 0.00 0.00 0.00 0.00 0.00 0.00 0.00 0.00 0.00 0.00 0.00 0.00 0.00 0.00 0.00 0.00 0.00 0.00 0.00 0.00 0.00 0.00 0.00 0.00 0.00 0.00 0.00 0.00 0.00 0.00 0.00 0.00 0.00 0.00 0.00 0.00 0.00
0.00 0.00 0.00 0.00 0.00 0.00 0.00 0.00 0.00 0.00 0.00 0.00 0.00 0.00 0.00 0.00 0.00 0.00 0.00 0.00 0.00 0.00 0.00 0.00 0.00 0.00 0.00 0.00 0.00 0.00 0.00 0.00 0.00 0.00 0.00 0.00 0.00 0.00 0.00 0.00 0.00 0.00 0.00 0.00 0.00 0.00 0.00 0.00 0.00
0.00 0.00 0.00 0.00 0.00 0.00 0.00 0.00 0.00 0.00 0.00 0.00 0.00 0.00 0.00 0.00 0.00 0.00 0.00 0.00 0.00 0.00 0.00 0.00 0.00 0.00 0.00 0.00 0.00 0.00 0.00 0.00 0.00 0.00 0.00 0.00 0.00 0.00 0.00 0.00 0.00 0.00 0.00 0.00 0.00 0.00 0.00 0.00 0.00
0.00 0.00 0.00 0.00 0.00 0.00 0.00 0.00 0.00 0.00 0.00 0.00 0.00 0.00 0.00 0.00 0.00 0.00 0.00 0.00 0.00 0.00 0.00 0.00 0.00 0.00 0.00 0.00 0.00 0.00 0.00 0.00 0.00 0.00 0.00 0.00 0.00 0.00 0.00 0.00 0.00 0.00 0.00 0.00 0.00 0.00 0.00 0.00 0.00
0.00 0.00 0.00 0.00 0.00 0.00 0.00 0.00 0.00 0.00 0.00 0.00 0.00 0.00 0.00 0.00 0.00 0.00 0.00 0.00 0.00 0.00 0.00 0.00 0.00 0.00 0.00 0.00 0.00 0.00 0.00 0.00 0.00 0.00 0.00 0.00 0.00 0.00 0.00 0.00 0.00 0.00 0.00 0.00 0.00 0.00 0.00 0.00 0.00
0.00 0.00 0.00 0.00 0.00 0.00 0.00 0.00 0.00 0.00 0.00 0.00 0.00 0.00 0.00 0.00 0.00 0.00 0.00 0.00 0.00 0.00 0.00 0.00 0.00 0.00 0.00 0.00 0.00 0.00 0.00 0.00 0.00 0.00 0.00 0.00 0.00 0.00 0.00 0.00 0.00 0.00 0.00 0.00 0.00 0.00 0.00 0.00 0.00
0.00 0.00 0.00 0.00 0.00 0.00 0.00 0.00 0.00 0.00 0.00 0.00 0.00 0.00 0.00 0.00 0.00 0.00 0.00 0.00 0.00 0.00 0.00 0.00 0.00 0.00 0.00 0.00 0.00 0.00 0.00 0.00 0.00 0.00 0.00 0.00 0.00 0.00 0.00 0.00 0.00 0.00 0.00 0.00 0.00 0.00 0.00 0.00 0.00
0.00 0.00 0.00 0.00 0.00 0.00 0.00 0.00 0.00 0.00 0.00 0.00 0.00 0.00 0.00 0.00 0.00 0.00 0.00 0.00 0.00 0.00 0.00 0.00 0.00 0.00 0.00 0.00 0.00 0.00 0.00 0.00 0.00 0.00 0.00 0.00 0.00 0.00 0.00 0.00 0.00 0.00 0.00 0.00 0.00 0.00 0.00 0.00 0.00
MSLP
1014.07 1014.82 1015.77 1016.80 1017.77 1018.57 1019.13 1019.40 1019.41 1019.21 1018.91 1018.60 1018.34 1018.17 1018.11 1018.13 1018.18 1018.23 1018.24 1018.20 1018.15 1018.10 1018.10 1018.19 1018.38 1018.68 1019.06 1019.47 1019.89 1020.26 1020.58 1020.82 1021.01 1021.16 1021.29 1021.43 1021.59 1021.75 1021.93 1022.08 1022.21 1022.30 1022.33 1022.31 1022.26 1022.18 1022.10 1022.03 1021.99
1014.54 1015.45 1016.49 1017.53 1018.43 1019.08 1019.42 1019.45 1019.21 1018.80 1018.33 1017.90 1017.59 1017.43 1017.42 1017.50 1017.63 1017.76 1017.84 1017.86 1017.86 1017.86 1017.91 1018.04 1018.29 1018.64 1019.06 1019.52 1019.98 1020.38 1020.72 1020.99 1021.20 1021.37 1021.53 1021.69 1021.86 1022.03 1022.22 1022.39 1022.52 1022.62 1022.66 1022.66 1022.63 1022.56 1022.50 1022.44 1022.40
1015.10 1016.11 1017.18 1018.16 1018.93 1019.39 1019.51 1019.30 1018.86 1018.28 1017.71 1017.23 1016.93 1016.81 1016.87 1017.04 1017.26 1017.45 1017.59 1017.67 1017.72 1017.76 1017.85 1018.03 1018.31 1018.69 1019.14 1019.62 1020.08 1020.50 1020.85 1021.13 1021.36 1021.55 1021.71 1021.88 1022.06 1022.24 1022.42 1022.58 1022.71 1022.80 1022.85 1022.87 1022.85 1022.82 1022.78 1022.75 1022.74
1015.72 1016.76 1017.78 1018.65 1019.24 1019.50 1019.40 1019.00 1018.41 1017.74 1017.12 1016.67 1016.42 1016.39 1016.53 1016.79 1017.08 1017.34 1017.53 1017.66 1017.74 1017.82 1017.95 1018.15 1018.46 1018.85 1019.29 1019.75 1020.20 1020.60 1020.94 1021.22 1021.45 1021.66 1021.84 1022.03 1022.21 1022.39 1022.56 1022.70 1022.81 1022.89 1022.94 1022.97 1022.98 1022.98 1022.98 1023.00 1023.03
1016.32 1017.33 1018.25 1018.96 1019.36 1019.42 1019.15 1018.61 1017.93 1017.24 1016.66 1016.27 1016.11 1016.18 1016.41 1016.74 1017.09 1017.39 1017.62 1017.78 1017.90 1018.01 1018.17 1018.40 1018.71 1019.09 1019.50 1019.93 1020.33 1020.68 1020.99 1021.26 1021.50 1021.72 1021.93 1022.14 1022.35 1022.53 1022.69 1022.81 1022.90 1022.96 1023.00 1023.03 1023.06 1023.09 1023.14 1023.20 1023.27
1016.83 1017.76 1018.55 1019.08 1019.30 1019.18 1018.78 1018.17 1017.48 1016.84 1016.34 1016.06 1016.02 1016.18 1016.48 1016.86 1017.23 1017.55 1017.79 1017.97 1018.11 1018.26 1018.45 1018.70 1019.02 1019.38 1019.75 1020.12 1020.45 1020.75 1021.02 1021.27 1021.51 1021.76 1022.01 1022.26 1022.49 1022.69 1022.84 1022.95 1023.01 1023.05 1023.07 1023.10 1023.14 1023.20 1023.28 1023.38 1023.49
1017.21 1018.02 1018.65 1019.00 1019.05 1018.81 1018.34 1017.73 1017.09 1016.55 1016.18 1016.02 1016.09 1016.32 1016.67 1017.06 1017.42 1017.72 1017.96 1018.14 1018.31 1018.49 1018.72 1019.00 1019.32 1019.67 1020.00 1020.31 1020.58 1020.82 1021.04 1021.27 1021.52 1021.80 1022.09 1022.39 1022.66 1022.89 1023.04 1023.14 1023.18 1023.18 1023.18 1023.19 1023.23 1023.31 1023.41 1023.53 1023.66
1017.42 1018.09 1018.55 1018.75 1018.67 1018.35 1017.87 1017.30 1016.76 1016.35 1016.12 1016.09 1016.25 1016.53 1016.89 1017.25 1017.57 1017.83 1018.04 1018.22 1018.40 1018.63 1018.90 1019.22 1019.56 1019.90 1020.21 1020.47 1020.69 1020.88 1021.07 1021.28 1021.54 1021.85 1022.19 1022.54 1022.86 1023.11 1023.28 1023.36 1023.37 1023.34 1023.31 1023.30 1023.32 1023.39 1023.50 1023.63 1023.77
1017.47 1017.99 1018.30 1018.36 1018.20 1017.84 1017.38 1016.90 1016.49 1016.22 1016.12 1016.20 1016.42 1016.73 1017.06 1017.37 1017.62 1017.82 1017.99 1018.15 1018.36 1018.62 1018.95 1019.32 1019.70 1020.06 1020.36 1020.60 1020.78 1020.93 1021.09 1021.30 1021.57 1021.91 1022.29 1022.68 1023.03 1023.31 1023.48 1023.55 1023.54 1023.48 1023.42 1023.37 1023.38 1023.44 1023.54 1023.67 1023.79
1017.39 1017.78 1017.95 1017.91 1017.69 1017.33 1016.93 1016.54 1016.25 1016.11 1016.13 1016.29 1016.54 1016.84 1017.13 1017.36 1017.54 1017.67 1017.79 1017.95 1018.17 1018.47 1018.85 1019.27 1019.71 1020.10 1020.42 1020.66 1020.83 1020.97 1021.12 1021.32 1021.60 1021.95 1022.35 1022.77 1023.14 1023.42 1023.60 1023.66 1023.63 1023.55 1023.45 1023.39 1023.37 1023.41 1023.50 1023.61 1023.72
1017.25 1017.52 1017.59 1017.47 1017.22 1016.88 1016.53 1016.24 1016.06 1016.02 1016.11 1016.31 1016.58 1016.85 1017.08 1017.24 1017.35 1017.42 1017.50 1017.63 1017.86 1018.19 1018.62 1019.10 1019.58 1020.02 1020.37 1020.63 1020.82 1020.96 1021.11 1021.31 1021.58 1021.93 1022.34 1022.75 1023.12 1023.40 1023.57 1023.63 1023.59 1023.50 1023.39 1023.31 1023.28 1023.31 1023.38 1023.47 1023.56
1017.14 1017.31 1017.29 1017.13 1016.86 1016.54 1016.24 1016.01 1015.90 1015.92 1016.05 1016.27 1016.51 1016.74 1016.92 1017.03 1017.08 1017.10 1017.15 1017.27 1017.50 1017.84 1018.29 1018.81 1019.33 1019.82 1020.21 1020.52 1020.73 1020.90 1021.06 1021.26 1021.51 1021.84 1022.22 1022.61 1022.95 1023.22 1023.39 1023.44 1023.41 1023.33 1023.24 1023.17 1023.14 1023.17 1023.23 1023.30 1023.36
1017.13 1017.22 1017.15 1016.94 1016.66 1016.36 1016.08 1015.89 1015.79 1015.82 1015.95 1016.15 1016.36 1016.56 1016.69 1016.77 1016.78 1016.78 1016.81 1016.91 1017.12 1017.46 1017.91 1018.44 1018.99 1019.51 1019.95 1020.31 1020.58 1020.78 1020.96 1021.16 1021.40 1021.69 1022.02 1022.36 1022.67 1022.91 1023.07 1023.14 1023.13 1023.09 1023.03 1022.99 1022.99 1023.03 1023.08 1023.14 1023.18
1017.27 1017.31 1017.19 1016.96 1016.67 1016.37 1016.09 1015.88 1015.76 1015.75 1015.83 1015.98 1016.15 1016.31 1016.43 1016.49 1016.51 1016.51 1016.52 1016.61 1016.79 1017.10 1017.52 1018.03 1018.58 1019.12 1019.61 1020.03 1020.36 1020.62 1020.83 1021.04 1021.26 1021.50 1021.78 1022.05 1022.31 1022.53 1022.69 1022.78 1022.82 1022.83 1022.84 1022.86 1022.89 1022.95 1023.01 1023.05 1023.06
1017.56 1017.55 1017.41 1017.18 1016.88 1016.56 1016.25 1015.99 1015.80 1015.71 1015.71 1015.78 1015.90 1016.03 1016.15 1016.23 1016.28 1016.29 1016.32 1016.39 1016.54 1016.79 1017.15 1017.62 1018.15 1018.70 1019.23 1019.71 1020.11 1020.44 1020.71 1020.93 1021.14 1021.35 1021.56 1021.78 1021.99 1022.18 1022.34 1022.47 1022.57 1022.66 1022.74 1022.82 1022.91 1022.99 1023.05 1023.08 1023.06
1017.95 1017.92 1017.78 1017.54 1017.24 1016.90 1016.54 1016.19 1015.91 1015.69 1015.58 1015.56 1015.61 1015.73 1015.86 1015.99 1016.08 1016.14 1016.19 1016.24 1016.35 1016.54 1016.83 1017.23 1017.73 1018.28 1018.85 1019.40 1019.89 1020.30 1020.63 1020.90 1021.11 1021.28 1021.45 1021.61 1021.77 1021.94 1022.11 1022.28 1022.44 1022.61 1022.76 1022.91 1023.05 1023.16 1023.22 1023.23 1023.19
1018.35 1018.32 1018.20 1017.98 1017.69 1017.32 1016.90 1016.46 1016.04 1015.69 1015.43 1015.30 1015.30 1015.39 1015.55 1015.73 1015.90 1016.02 1016.11 1016.16 1016.23 1016.36 1016.57 1016.91 1017.36 1017.91 1018.51 1019.13 1019.71 1020.23 1020.64 1020.96 1021.18 1021.35 1021.47 1021.59 1021.71 1021.87 1022.04 1022.25 1022.47 1022.70 1022.93 1023.14 1023.31 1023.44 1023.50 1023.49 1023.42
1018.67 1018.67 1018.59 1018.41 1018.14 1017.76 1017.28 1016.73 1016.17 1015.66 1015.26 1015.01 1014.93 1015.01 1015.20 1015.45 1015.71 1015.91 1016.05 1016.13 1016.17 1016.25 1016.39 1016.66 1017.07 1017.61 1018.25 1018.94 1019.62 1020.23 1020.74 1021.12 1021.38 1021.54 1021.65 1021.73 1021.83 1021.96 1022.14 1022.38 1022.64 1022.93 1023.20 1023.45 1023.65 1023.78 1023.84 1023.81 1023.71
1018.83 1018.88 1018.87 1018.77 1018.54 1018.15 1017.63 1016.98 1016.28 1015.60 1015.05 1014.67 1014.52 1014.57 1014.80 1015.13 1015.48 1015.78 1016.00 1016.11 1016.17 1016.21 1016.30 1016.52 1016.89 1017.42 1018.09 1018.84 1019.60 1020.31 1020.91 1021.36 1021.66 1021.84 1021.94 1022.00 1022.07 1022.19 1022.38 1022.62 1022.91 1023.22 1023.52 1023.79 1023.99 1024.12 1024.16 1024.12 1024.01
1018.80 1018.93 1019.02 1019.01 1018.84 1018.48 1017.91 1017.17 1016.33 1015.50 1014.79 1014.29 1014.05 1014.09 1014.35 1014.75 1015.21 1015.63 1015.94 1016.12 1016.20 1016.24 1016.31 1016.48 1016.82 1017.34 1018.03 1018.82 1019.65 1020.43 1021.10 1021.62 1021.97 1022.17 1022.27 1022.33 1022.39 1022.50 1022.67 1022.92 1023.21 1023.53 1023.83 1024.09 1024.28 1024.39 1024.43 1024.38 1024.27
1018.59 1018.83 1019.04 1019.14 1019.05 1018.71 1018.12 1017.30 1016.33 1015.36 1014.50 1013.88 1013.56 1013.57 1013.87 1014.35 1014.92 1015.46 1015.88 1016.15 1016.29 1016.35 1016.40 1016.55 1016.86 1017.36 1018.04 1018.85 1019.71 1020.55 1021.27 1021.84 1022.23 1022.46 1022.57 1022.63 1022.69 1022.79 1022.96 1023.20 1023.49 1023.79 1024.07 1024.31 1024.47 1024.56 1024.59 1024.54 1024.45
1018.27 1018.63 1018.98 1019.20 1019.19 1018.90 1018.28 1017.39 1016.31 1015.20 1014.21 1013.48 1013.09 1013.07 1013.39 1013.95 1014.63 1015.29 1015.83 1016.20 1016.41 1016.51 1016.57 1016.70 1016.98 1017.45 1018.11 1018.90 1019.77 1020.62 1021.37 1021.97 1022.38 1022.64 1022.78 1022.86 1022.93 1023.03 1023.20 1023.43 1023.69 1023.97 1024.22 1024.42 1024.55 1024.62 1024.63 1024.60 1024.54
1017.94 1018.44 1018.91 1019.25 1019.32 1019.05 1018.42 1017.46 1016.29 1015.06 1013.95 1013.12 1012.67 1012.63 1012.97 1013.60 1014.37 1015.14 1015.80 1016.27 1016.56 1016.71 1016.79 1016.91 1017.16 1017.58 1018.19 1018.94 1019.78 1020.61 1021.36 1021.97 1022.41 1022.70 1022.87 1022.97 1023.06 1023.18 1023.35 1023.57 1023.82 1024.07 1024.28 1024.44 1024.54 1024.58 1024.58 1024.56 1024.53
1017.67 1018.30 1018.90 1019.33 1019.47 1019.22 1018.56 1017.55 1016.29 1014.96 1013.76 1012.85 1012.34 1012.28 1012.63 1013.30 1014.15 1015.01 1015.77 1016.34 1016.71 1016.91 1017.02 1017.13 1017.34 1017.71 1018.26 1018.95 1019.74 1020.53 1021.26 1021.87 1022.32 1022.63 1022.84 1022.98 1023.10 1023.25 1023.43 1023.65 1023.88 1024.10 1024.27 1024.39 1024.45 1024.47 1024.46 1024.44 1024.44
1017.52 1018.27 1018.96 1019.46 1019.63 1019.38 1018.70 1017.63 1016.31 1014.91 1013.64 1012.67 1012.11 1012.03 1012.38 1013.08 1013.97 1014.90 1015.73 1016.38 1016.82 1017.06 1017.20 1017.31 1017.50 1017.82 1018.31 1018.93 1019.65 1020.39 1021.09 1021.68 1022.15 1022.49 1022.73 1022.91 1023.07 1023.25 1023.45 1023.67 1023.89 1024.08 1024.23 1024.31 1024.33 1024.31 1024.28 1024.27 1024.28
1017.47 1018.30 1019.06 1019.59 1019.77 1019.50 1018.79 1017.68 1016.32 1014.88 1013.57 1012.56 1011.98 1011.87 1012.21 1012.91 1013.82 1014.78 1015.65 1016.35 1016.83 1017.12 1017.29 1017.41 1017.58 1017.87 1018.31 1018.88 1019.54 1020.24 1020.90 1021.48 1021.95 1022.31 1022.58 1022.80 1023.00 1023.21 1023.43 1023.65 1023.86 1024.03 1024.15 1024.19 1024.18 1024.13 1024.08 1024.05 1024.06
1017.45 1018.34 1019.12 1019.65 1019.81 1019.52 1018.77 1017.65 1016.27 1014.82 1013.51 1012.49 1011.89 1011.77 1012.08 1012.75 1013.64 1014.59 1015.47 1016.19 1016.71 1017.04 1017.24 1017.39 1017.57 1017.86 1018.27 1018.81 1019.43 1020.09 1020.72 1021.29 1021.76 1022.14 1022.43 1022.68 1022.91 1023.14 1023.37 1023.59 1023.79 1023.94 1024.03 1024.04 1023.99 1023.91 1023.83 1023.77 1023.76
1017.38 1018.29 1019.05 1019.55 1019.66 1019.33 1018.57 1017.44 1016.08 1014.67 1013.39 1012.40 1011.81 1011.67 1011.95 1012.57 1013.41 1014.32 1015.17 1015.88 1016.42 1016.78 1017.03 1017.22 1017.45 1017.76 1018.18 1018.71 1019.32 1019.96 1020.59 1021.14 1021.61 1021.99 1022.30 1022.56 1022.80 1023.03 1023.26 1023.47 1023.65 1023.78 1023.84 1023.82 1023.75 1023.64 1023.52 1023.43 1023.39
1017.16 1018.04 1018.75 1019.17 1019.23 1018.86 1018.09 1017.00 1015.70 1014.36 1013.15 1012.22 1011.66 1011.51 1011.75 1012.31 1013.07 1013.91 1014.71 1015.40 1015.93 1016.33 1016.63 1016.90 1017.19 1017.56 1018.03 1018.59 1019.22 1019.86 1020.48 1021.03 1021.49 1021.87 1022.17 1022.42 1022.64 1022.86 1023.06 1023.25 1023.41 1023.51 1023.55 1023.51 1023.42 1023.29 1023.15 1023.03 1022.94
1016.74 1017.54 1018.16 1018.49 1018.48 1018.08 1017.33 1016.29 1015.09 1013.86 1012.76 1011.92 1011.41 1011.26 1011.47 1011.95 1012.62 1013.37 1014.10 1014.75 1015.28 1015.71 1016.08 1016.43 1016.81 1017.27 1017.81 1018.42 1019.08 1019.75 1020.37 1020.91 1021.36 1021.72 1022.00 1022.23 1022.42 1022.60 1022.77 1022.93 1023.06 1023.13 1023.15 1023.10 1023.00 1022.85 1022.69 1022.54 1022.42
Thickness
5739 5739 5739 5730 5707 5686 5689 5701 5709 5715 5720 5728 5730 5725 5720 5721 5719 5719 5731 5732 5733 5730 5725 5723 5719 5716 5713 5710 5707 5705 5702 5700 5698 5696 5694 5692 5691 5689 5688 5687 5686 5685 5684 5683 5682 5682 5681 5681 5680
5739 5739 5732 5716 5690 5676 5687 5703 5709 5717 5726 5727 5727 5726 5725 5726 5731 5730 5729 5730 5730 5728 5724 5721 5717 5714 5710 5707 5704 5701 5698 5696 5694 5692 5690 5688 5686 5684 5682 5681 5680 5679 5678 5677 5676 5675 5674 5674 5674
5739 5737 5721 5703 5688 5682 5696 5710 5714 5724 5728 5728 5725 5727 5727 5728 5732 5731 5732 5729 5727 5724 5721 5718 5715 5711 5708 5704 5701 5698 5695 5693 5690 5688 5685 5683 5681 5679 5677 5676 5674 5673 5672 5671 5670 5669 5668 5668 5668
5736 5726 5714 5697 5695 5698 5707 5718 5719 5723 5726 5728 5725 5723 5727 5732 5732 5733 5732 5728 5725 5721 5718 5715 5712 5708 5705 5702 5698 5695 5692 5689 5686 5684 5681 5679 5676 5674 5672 5671 5669 5668 5667 5666 5665 5664 5663 5662 5662
5730 5717 5701 5691 5699 5708 5714 5720 5722 5721 5723 5725 5724 5720 5724 5730 5731 5731 5729 5726 5722 5718 5715 5712 5709 5706 5702 5699 5695 5692 5688 5685 5682 5679 5677 5674 5672 5669 5667 5665 5664 5663 5662 5660 5659 5658 5658 5657 5656
5718 5708 5689 5688 5699 5711 5718 5725 5724 5722 5723 5724 5721 5718 5725 5728 5728 5726 5726 5723 5720 5716 5712 5709 5706 5702 5699 5695 5692 5688 5684 5681 5678 5675 5672 5670 5667 5664 5662 5660 5659 5657 5656 5655 5654 5653 5652 5651 5651
5712 5701 5693 5697 5698 5708 5720 5726 5724 5722 5722 5723 5723 5718 5723 5727 5725 5723 5721 5718 5715 5712 5709 5705 5703 5699 5695 5692 5688 5684 5681 5677 5674 5671 5668 5665 5662 5660 5658 5656 5654 5652 5651 5649 5648 5647 5646 5646 5645
5717 5703 5697 5695 5699 5708 5721 5726 5728 5725 5724 5727 5726 5719 5721 5726 5722 5719 5716 5713 5710 5708 5705 5703 5700 5696 5692 5689 5685 5681 5677 5674 5670 5667 5663 5660 5658 5655 5653 5651 5649 5647 5646 5644 5643 5642 5641 5641 5640
5719 5696 5690 5699 5703 5711 5722 5723 5727 5729 5725 5725 5725 5726 5727 5723 5719 5715 5710 5707 5705 5704 5702 5699 5697 5693 5689 5685 5681 5677 5673 5670 5666 5663 5659 5656 5653 5650 5648 5646 5644 5642 5641 5639 5638 5637 5636 5635 5634
5707 5690 5700 5711 5714 5716 5720 5722 5724 5724 5721 5721 5723 5724 5722 5719 5717 5713 5709 5706 5704 5702 5699 5697 5694 5690 5686 5682 5678 5674 5670 5666 5662 5659 5655 5652 5649 5646 5643 5641 5639 5637 5636 5634 5633 5632 5631 5630 5629
5707 5698 5706 5713 5717 5718 5718 5720 5723 5720 5715 5719 5722 5723 5718 5715 5714 5712 5710 5707 5705 5702 5698 5695 5691 5687 5683 5679 5674 5670 5666 5662 5658 5655 5651 5648 5644 5641 5639 5637 5635 5633 5631 5629 5628 5626 5625 5624 5623
5703 5705 5708 5713 5717 5716 5716 5718 5718 5717 5719 5727 5727 5725 5717 5714 5713 5712 5709 5706 5702 5699 5696 5693 5688 5684 5680 5675 5671 5666 5662 5658 5654 5651 5647 5644 5641 5637 5635 5633 5630 5628 5626 5624 5623 5621 5620 5619 5617
5699 5701 5707 5710 5711 5712 5713 5712 5714 5716 5722 5723 5722 5719 5715 5713 5712 5712 5709 5704 5700 5697 5695 5691 5686 5681 5676 5671 5667 5662 5659 5655 5651 5648 5644 5641 5638 5634 5632 5629 5627 5624 5622 5620 5618 5616 5615 5613 5612
5696 5698 5699 5702 5705 5707 5706 5707 5708 5715 5719 5718 5716 5713 5712 5710 5710 5707 5704 5701 5698 5696 5693 5689 5684 5679 5673 5668 5663 5659 5655 5651 5648 5644 5641 5638 5635 5632 5628 5625 5622 5620 5618 5615 5613 5611 5609 5607 5606
5691 5688 5689 5696 5698 5701 5701 5698 5704 5716 5714 5711 5710 5708 5708 5706 5705 5704 5703 5700 5698 5695 5691 5687 5682 5676 5670 5665 5660 5656 5652 5648 5644 5641 5638 5634 5631 5628 5625 5621 5618 5616 5613 5610 5607 5605 5602 5600 5599
5680 5672 5671 5685 5692 5695 5691 5689 5706 5712 5707 5705 5704 5702 5702 5703 5702 5701 5700 5698 5695 5692 5689 5684 5680 5673 5667 5662 5657 5652 5648 5644 5640 5637 5634 5631 5628 5624 5621 5617 5614 5611 5607 5604 5601 5598 5596 5593 5591
5658 5653 5661 5671 5686 5686 5683 5685 5701 5705 5702 5700 5699 5697 5696 5697 5698 5698 5696 5694 5692 5690 5686 5681 5676 5670 5664 5658 5652 5647 5643 5639 5636 5632 5629 5626 5623 5620 5616 5612 5608 5605 5601 5597 5594 5591 5588 5586 5584
5646 5648 5654 5660 5674 5676 5673 5679 5694 5697 5696 5695 5694 5692 5691 5692 5694 5693 5691 5689 5688 5685 5682 5677 5672 5666 5659 5653 5647 5641 5637 5633 5630 5627 5623 5620 5617 5613 5610 5606 5602 5598 5594 5590 5586 5583 5580 5577 5575
5650 5647 5648 5655 5666 5666 5666 5674 5690 5695 5692 5691 5690 5688 5687 5688 5689 5687 5684 5682 5680 5678 5675 5671 5666 5660 5654 5647 5641 5635 5630 5626 5623 5620 5616 5613 5610 5606 5602 5598 5594 5590 5586 5581 5578 5574 5570 5567 5565
5642 5640 5641 5649 5658 5658 5659 5669 5686 5691 5692 5695 5695 5690 5688 5684 5682 5680 5677 5674 5673 5670 5668 5664 5660 5654 5649 5644 5637 5631 5625 5620 5616 5612 5608 5605 5602 5598 5594 5590 5585 5581 5577 5572 5568 5564 5560 5556 5554
5633 5633 5638 5641 5647 5651 5651 5662 5679 5690 5692 5694 5693 5691 5687 5684 5679 5674 5670 5667 5664 5661 5659 5658 5652 5648 5643 5637 5630 5623 5617 5612 5607 5604 5600 5597 5594 5590 5586 5581 5577 5572 5568 5562 5558 5554 5550 5545 5542
5626 5636 5636 5636 5632 5628 5638 5633 5669 5679 5682 5688 5688 5683 5680 5679 5674 5669 5664 5660 5656 5654 5651 5649 5645 5640 5635 5630 5625 5620 5613 5606 5601 5596 5592 5588 5585 5581 5577 5572 5568 5563 5558 5553 5549 5545 5540 5535 5531
5630 5636 5631 5630 5626 5620 5626 5623 5655 5669 5675 5684 5685 5680 5675 5672 5668 5665 5660 5655 5650 5646 5643 5640 5636 5631 5627 5623 5619 5613 5606 5599 5593 5588 5584 5579 5575 5572 5568 5563 5558 5553 5548 5543 5539 5535 5530 5525 5521
5628 5622 5615 5606 5606 5606 5620 5613 5633 5659 5671 5678 5681 5676 5670 5664 5661 5657 5652 5647 5642 5637 5634 5631 5628 5623 5619 5615 5610 5606 5599 5592 5586 5580 5575 5570 5566 5562 5558 5553 5548 5543 5538 5534 5529 5524 5520 5515 5510
5621 5608 5594 5596 5593 5598 5613 5611 5630 5661 5668 5669 5672 5671 5664 5657 5652 5648 5643 5639 5635 5630 5627 5623 5620 5615 5610 5607 5602 5598 5592 5586 5580 5573 5567 5562 5557 5552 5548 5543 5538 5533 5528 5524 5519 5514 5509 5505 5500
5611 5607 5592 5589 5587 5593 5605 5605 5638 5660 5663 5664 5664 5664 5657 5650 5645 5643 5639 5634 5629 5625 5620 5617 5613 5608 5603 5599 5594 5589 5584 5578 5572 5566 5560 5554 5548 5543 5538 5533 5528 5523 5518 5514 5509 5504 5499 5494 5489
5603 5600 5604 5589 5585 5585 5596 5611 5634 5659 5660 5660 5658 5654 5649 5643 5640 5637 5632 5628 5624 5619 5615 5611 5607 5602 5597 5592 5586 5580 5575 5570 5564 5557 5551 5545 5539 5534 5529 5523 5518 5513 5508 5503 5498 5493 5488 5484 5479
5607 5599 5586 5582 5577 5577 5590 5601 5620 5644 5651 5652 5652 5648 5643 5638 5633 5630 5626 5623 5618 5614 5609 5605 5601 5596 5590 5585 5579 5573 5567 5561 5555 5548 5542 5536 5530 5525 5519 5514 5508 5503 5498 5493 5488 5483 5478 5473 5468
5594 5592 5590 5580 5576 5575 5578 5600 5628 5635 5642 5641 5643 5643 5638 5633 5629 5626 5622 5617 5613 5607 5602 5598 5594 5589 5583 5577 5571 5565 5558 5552 5545 5539 5533 5527 5521 5515 5509 5504 5498 5493 5488 5483 5478 5473 5468 5463 5458
5599 5595 5587 5580 5576 5569 5571 5595 5634 5633 5634 5635 5639 5639 5635 5631 5626 5622 5617 5611 5606 5601 5596 5592 5587 5582 5576 5570 5563 5556 5549 5542 5536 5529 5523 5517 5511 5505 5499 5494 5488 5483 5478 5473 5468 5463 5458 5453 5448